[[{"header":{"parameterUnit":"m.s-1","parameterCategory":1,"la1":30.2991,"la2":30.254,"lo1":-89.0895,"lo2":-89.0444,"dy":0.0017,"dx":0.0017,"nx":28,"ny":28,"refTime":"2025-09-04T09:00:00:Z","depth":0,"parameterNumber":2,"parameterNumberName":"U-component_of_WINDS"},"data":[0,0,0,0,0,0,0,0,0,0,0,0,0,0,0,0,0,0,0,0,0,0,0,0,0,0,0,0,0,0,0,0,0,0,0,0,0,0,0,0,0,0,0,0,0,0,0,0,0,0,0,0,0,0,0,0,0,0,0.7737,0.7736,0,0.7691,0.7691,0.769,0.7622,0.7621,0.762,0.7618,0.7572,0.7572,0.7572,0,0,0,0,0,0,0,0,0,0,0,0,0,0.7765,0.7765,0.7737,0.7736,0.7736,0.7691,0.769,0.769,0.7622,0.7621,0.7619,0.7618,0.7572,0.7572,0.7572,0,0,0,0,0,0,0,0,0,0,0,0,0,0.774,0.7765,0.7737,0.7697,0.7693,0.7691,0.769,0.769,0.7622,0.7621,0.7619,0.7617,0.7572,0.7572,0.7572,0.7606,0,0,0.7571,0.7571,0,0,0,0,0,0,0,0,0.7741,0.7739,0.7703,0.7699,0.7695,0.766,0.7683,0.7662,0.7623,0.7649,0.7618,0.7616,0.7603,0.76,0.7595,0.7604,0.7602,0.7571,0.7571,0.7571,0.7571,0,0,0,0,0,0,0,0.7743,0.774,0.7719,0.7703,0.7698,0.768,0.7675,0.7679,0.7637,0.7647,0.7642,0.7637,0.76,0.7596,0.7594,0.7602,0.7571,0.7571,0.7571,0.7571,0.7633,0.7635,0,0,0,0,0,0,0.7751,0.7742,0.772,0.7717,0.7714,0.7681,0.7675,0.7673,0.7636,0.7629,0.7639,0.7634,0.7597,0.7594,0.7592,0.7627,0.7571,0.7571,0.7571,0.7632,0.7634,0.7636,0,0,0,0,0,0,0.7752,0.7749,0.7722,0.7728,0.7724,0.7683,0.7681,0.7673,0.7669,0.763,0.7622,0.7642,0.7595,0.7592,0.7603,0.7625,0.7571,0.7571,0.7629,0.7632,0.7635,0.7701,0,0,0,0,0,0,0.7753,0.775,0.7763,0.7729,0.7723,0.7734,0.7683,0.7674,0.7668,0.7662,0.7631,0.7624,0.7594,0.7603,0.7602,0.7624,0.757,0.7627,0.7631,0.7634,0.7696,0.7705,0.7713,0,0,0,0,0,0.7754,0.7785,0.7764,0.7762,0.7739,0.7736,0.7732,0.7696,0.7671,0.7683,0.7658,0.7625,0.7623,0.7605,0.7603,0.7625,0.7626,0.763,0.7634,0.7693,0.7704,0.7713,0,0,0,0,0,0,0.7823,0.7779,0.7756,0.7777,0.776,0.7724,0.7739,0.7709,0.77,0.7694,0.765,0.7644,0.7659,0.7643,0.7624,0.7655,0.7619,0.7623,0.7665,0.7675,0.7683,0.7685,0.757,0,0,0,0,0,0.7841,0.7842,0.7803,0.7825,0.7818,0.778,0.7777,0.7751,0.7732,0.7724,0.77,0.7683,0.7678,0.7676,0.767,0.7694,0.7685,0.7708,0.7717,0.7724,0.7727,0.7736,0.7745,0.7649,0.7649,0.7649,0,0,0.7877,0.7853,0.7857,0.7838,0.7822,0.7823,0.7774,0.7778,0.7778,0.7725,0.7732,0.7714,0.7692,0.7709,0.7715,0.7696,0.7752,0.7729,0.7735,0.7734,0.7741,0.775,0.7758,0.7651,0.7651,0.765,0,0,0.7943,0.7927,0.7941,0.7926,0.7902,0.7876,0.788,0.7847,0.7833,0.784,0.7799,0.7798,0.7792,0.7776,0.7768,0.7827,0.7795,0.7826,0.7869,0.7878,0.7886,0.7892,0.791,0.7918,0.783,0.783,0.783,0,0.7991,0.7991,0.7953,0.7958,0.795,0.7902,0.7915,0.7903,0.7878,0.7873,0.7853,0.7841,0.7823,0.7834,0.7848,0.7844,0.7845,0.7829,0.7888,0.7894,0.7899,0.7916,0.7923,0.7834,0.7833,0.7833,0.7833,0,0.805,0.8051,0.8066,0.8042,0.8036,0.8046,0.8008,0.8007,0.7981,0.7957,0.7963,0.794,0.7926,0.7927,0.7903,0.7934,0.7923,0.7896,0.7858,0.7913,0.7928,0.7934,0.7839,0.7838,0.7837,0.7836,0,0,0.8158,0.8112,0.8118,0.8105,0.8075,0.8074,0.8081,0.8067,0.8066,0.8051,0.8054,0.8049,0.8022,0.8013,0.7986,0.7994,0.8039,0.7966,0.7964,0.7978,0.8069,0.8088,0.8096,0.8019,0.802,0.8021,0.807,0,0.8216,0.8225,0.819,0.8208,0.8206,0.816,0.8165,0.8147,0.8125,0.812,0.8095,0.8091,0.8058,0.8052,0.8058,0.8032,0.8056,0.8028,0.802,0.802,0.8024,0.8105,0.8125,0.8173,0.8076,0.8077,0.8078,0,0.8285,0.8272,0.829,0.8256,0.8254,0.826,0.8243,0.824,0.8217,0.82,0.8189,0.8157,0.816,0.8126,0.8129,0.811,0.8105,0.8092,0.8092,0.8088,0.8051,0.81,0.8188,0.8194,0.8087,0.8086,0.8086,0,0.8359,0.8346,0.8354,0.8345,0.8307,0.8311,0.8295,0.8271,0.8264,0.825,0.8245,0.8231,0.8224,0.8213,0.8178,0.8157,0.8184,0.8148,0.8169,0.817,0.8175,0.8175,0.826,0.8176,0.8176,0.8176,0.8175,0,0.8426,0.8438,0.8386,0.8391,0.8402,0.8361,0.8373,0.8353,0.8331,0.833,0.829,0.829,0.8245,0.8239,0.8212,0.8217,0.8214,0.82,0.8192,0.8202,0.8203,0.8196,0.8191,0.8177,0.8177,0.8177,0.8176,0,0.851,0.8476,0.8481,0.8443,0.8434,0.8444,0.8411,0.8414,0.8389,0.8388,0.8385,0.8346,0.8337,0.8302,0.8285,0.8266,0.8279,0.8266,0.8287,0.8281,0.8303,0.83,0.8385,0.8392,0.8306,0.8307,0.8308,0,0.8554,0.8561,0.8524,0.8521,0.8506,0.8501,0.8494,0.8454,0.8447,0.8421,0.8426,0.8414,0.8402,0.839,0.8359,0.8345,0.833,0.836,0.8327,0.8336,0.8327,0.8326,0.8325,0.8367,0.8368,0.8369,0.837,0,0.8634,0.8617,0.8607,0.8592,0.8583,0.8569,0.8553,0.8552,0.8507,0.8502,0.8492,0.8483,0.8464,0.8452,0.8433,0.8416,0.8384,0.838,0.8384,0.8393,0.8403,0.8395,0.8303,0.8378,0.8377,0.8377,0.8376,0.8376,0.8697,0.8701,0.8675,0.8665,0.8648,0.8633,0.8633,0.8607,0.8598,0.858,0.8557,0.8549,0.8524,0.8495,0.848,0.8473,0.8456,0.8462,0.8463,0.8464,0.8468,0.8407,0.847,0.847,0.8469,0.8469,0.8469,0,0.8774,0.8754,0.8746,0.8723,0.8715,0.8687,0.8666,0.8661,0.8655,0.8634,0.8623,0.861,0.8598,0.8566,0.855,0.855,0.8535,0.8547,0.8546,0.8541,0.8486,0.8483,0.8559,0.8559,0.8559,0.8559,0.8559,0.8559,0.8812,0.8816,0.8795,0.8789,0.877,0.8761,0.8752,0.8737,0.872,0.8708,0.8697,0.8676,0.865,0.8632,0.8619,0.8609,0.8604,0.862,0.8606,0.8555,0.8546,0.8538,0.8534,0.862,0.862,0.8662,0.8662,0.8663]},{"header":{"parameterUnit":"m.s-1","parameterCategory":1,"la1":30.2991,"la2":30.254,"lo1":-89.0895,"lo2":-89.0444,"dy":0.0017,"dx":0.0017,"nx":28,"ny":28,"refTime":"2025-09-04T09:00:00:Z","depth":0,"parameterNumber":3,"parameterNumberName":"V-component_of_WINDS"},"data":[0,0,0,0,0,0,0,0,0,0,0,0,0,0,0,0,0,0,0,0,0,0,0,0,0,0,0,0,0,0,0,0,0,0,0,0,0,0,0,0,0,0,0,0,0,0,0,0,0,0,0,0,0,0,0,0,0,0,-1.0517,-1.0517,0,-1.0485,-1.0484,-1.0484,-1.0476,-1.0476,-1.0476,-1.0477,-1.0439,-1.0437,-1.0436,0,0,0,0,0,0,0,0,0,0,0,0,0,-1.0569,-1.0568,-1.0517,-1.0517,-1.0517,-1.0485,-1.0484,-1.0484,-1.0476,-1.0476,-1.0476,-1.0477,-1.0439,-1.0438,-1.0436,0,0,0,0,0,0,0,0,0,0,0,0,0,-1.0542,-1.0568,-1.0518,-1.0509,-1.0508,-1.0485,-1.0484,-1.0484,-1.0476,-1.0476,-1.0476,-1.0477,-1.0439,-1.0438,-1.0436,-1.0418,0,0,-1.043,-1.0429,0,0,0,0,0,0,0,0,-1.0544,-1.0541,-1.0511,-1.0509,-1.0508,-1.0485,-1.0489,-1.0461,-1.0476,-1.0488,-1.0477,-1.0477,-1.0453,-1.045,-1.0443,-1.0416,-1.0414,-1.043,-1.0429,-1.0428,-1.0428,0,0,0,0,0,0,0,-1.0546,-1.0542,-1.0504,-1.051,-1.0509,-1.0505,-1.0502,-1.0483,-1.0469,-1.0487,-1.0486,-1.0483,-1.0453,-1.0445,-1.0442,-1.0414,-1.043,-1.0429,-1.0427,-1.0427,-1.037,-1.0369,0,0,0,0,0,0,-1.055,-1.0543,-1.0505,-1.0503,-1.0527,-1.0504,-1.05,-1.0492,-1.0469,-1.0466,-1.0482,-1.0482,-1.0448,-1.0445,-1.0441,-1.0418,-1.0428,-1.0427,-1.0425,-1.037,-1.037,-1.0369,0,0,0,0,0,0,-1.0551,-1.0546,-1.0507,-1.0523,-1.0518,-1.0503,-1.0493,-1.0491,-1.0484,-1.0466,-1.0463,-1.0478,-1.0448,-1.0444,-1.0424,-1.0417,-1.0426,-1.0424,-1.0371,-1.037,-1.0369,-1.0373,0,0,0,0,0,0,-1.0552,-1.0547,-1.0541,-1.0523,-1.0517,-1.0491,-1.0493,-1.049,-1.0481,-1.0481,-1.0461,-1.0457,-1.0448,-1.0427,-1.0422,-1.0414,-1.0423,-1.0371,-1.037,-1.037,-1.0373,-1.0372,-1.0372,0,0,0,0,0,-1.0554,-1.0542,-1.0541,-1.0536,-1.0509,-1.0491,-1.0487,-1.0478,-1.048,-1.0474,-1.0462,-1.0458,-1.0419,-1.0425,-1.042,-1.0411,-1.0372,-1.0371,-1.037,-1.0373,-1.0372,-1.0372,0,0,0,0,0,0,-1.0557,-1.054,-1.0538,-1.052,-1.0507,-1.049,-1.0481,-1.0477,-1.0463,-1.0463,-1.0451,-1.0446,-1.0427,-1.0417,-1.0424,-1.0392,-1.0395,-1.0393,-1.04,-1.0398,-1.0398,-1.04,-1.0421,0,0,0,0,0,-1.0556,-1.0544,-1.0529,-1.0514,-1.0508,-1.0496,-1.0487,-1.0481,-1.0467,-1.0461,-1.0449,-1.0434,-1.0418,-1.0408,-1.0392,-1.0372,-1.0367,-1.0364,-1.0363,-1.0362,-1.036,-1.0348,-1.0347,-1.0366,-1.0366,-1.0366,0,0,-1.0553,-1.0542,-1.0535,-1.0515,-1.0504,-1.0491,-1.0491,-1.0477,-1.0466,-1.0459,-1.044,-1.043,-1.0412,-1.0392,-1.0383,-1.0383,-1.0354,-1.0361,-1.0361,-1.0359,-1.0347,-1.0345,-1.0344,-1.0365,-1.0366,-1.0366,0,0,-1.0541,-1.0532,-1.0519,-1.0508,-1.0493,-1.0485,-1.0482,-1.0465,-1.0459,-1.044,-1.0434,-1.0421,-1.0394,-1.0382,-1.0372,-1.0356,-1.0351,-1.0351,-1.0347,-1.0335,-1.0334,-1.0332,-1.0326,-1.0324,-1.035,-1.035,-1.035,0,-1.0538,-1.0519,-1.0512,-1.0498,-1.0489,-1.0484,-1.047,-1.046,-1.0439,-1.0433,-1.0434,-1.0401,-1.0389,-1.0366,-1.0362,-1.0354,-1.035,-1.0353,-1.0335,-1.0333,-1.0332,-1.0326,-1.0323,-1.035,-1.035,-1.035,-1.035,0,-1.0517,-1.0504,-1.0495,-1.0477,-1.0467,-1.0453,-1.0443,-1.0433,-1.0428,-1.042,-1.04,-1.0386,-1.0367,-1.0361,-1.0356,-1.0337,-1.0338,-1.0338,-1.034,-1.033,-1.0324,-1.0322,-1.035,-1.035,-1.035,-1.035,0,0,-1.0504,-1.0484,-1.0481,-1.0473,-1.0456,-1.0445,-1.0431,-1.0414,-1.0406,-1.0392,-1.0379,-1.0357,-1.0357,-1.0346,-1.0339,-1.0329,-1.0316,-1.0329,-1.0328,-1.0327,-1.0294,-1.0295,-1.0292,-1.0314,-1.0313,-1.0313,-1.0296,0,-1.049,-1.0465,-1.0459,-1.0437,-1.0425,-1.042,-1.0407,-1.0394,-1.0386,-1.0373,-1.0363,-1.0348,-1.0348,-1.0342,-1.0332,-1.032,-1.0309,-1.0321,-1.03,-1.0299,-1.0304,-1.0289,-1.0289,-1.0273,-1.0293,-1.0293,-1.0292,0,-1.0469,-1.0457,-1.0435,-1.042,-1.0414,-1.0403,-1.0388,-1.0376,-1.0361,-1.0356,-1.0344,-1.0338,-1.0322,-1.0326,-1.0302,-1.031,-1.0301,-1.0294,-1.0293,-1.029,-1.0295,-1.0285,-1.0268,-1.0266,-1.0289,-1.0289,-1.0289,0,-1.0461,-1.0439,-1.0424,-1.0417,-1.0399,-1.0392,-1.0384,-1.037,-1.036,-1.0346,-1.034,-1.0323,-1.0314,-1.0301,-1.0291,-1.0294,-1.0268,-1.0271,-1.0262,-1.0262,-1.0255,-1.0256,-1.0237,-1.0251,-1.0251,-1.0251,-1.0251,0,-1.0445,-1.0432,-1.042,-1.041,-1.0395,-1.0387,-1.0371,-1.0363,-1.0351,-1.0338,-1.0332,-1.032,-1.0308,-1.0293,-1.0285,-1.0266,-1.0262,-1.0257,-1.0254,-1.0257,-1.0257,-1.025,-1.025,-1.025,-1.025,-1.0251,-1.0251,0,-1.0434,-1.0426,-1.0408,-1.0393,-1.0389,-1.0379,-1.0365,-1.0355,-1.0347,-1.0331,-1.0327,-1.0313,-1.0297,-1.0285,-1.0263,-1.0258,-1.0237,-1.0236,-1.0243,-1.0241,-1.0233,-1.0233,-1.0207,-1.0203,-1.0221,-1.0221,-1.0221,0,-1.0424,-1.0414,-1.0398,-1.039,-1.0383,-1.037,-1.0361,-1.0352,-1.0342,-1.0326,-1.0317,-1.03,-1.0286,-1.026,-1.0247,-1.023,-1.0227,-1.022,-1.0225,-1.0227,-1.0226,-1.0227,-1.0225,-1.0218,-1.0218,-1.0218,-1.0218,0,-1.0406,-1.0403,-1.0391,-1.0377,-1.0367,-1.0355,-1.0344,-1.0337,-1.0326,-1.0316,-1.0299,-1.0289,-1.0267,-1.025,-1.0232,-1.0222,-1.0218,-1.0217,-1.0214,-1.0215,-1.022,-1.0217,-1.024,-1.0217,-1.0217,-1.0217,-1.0217,-1.0217,-1.0395,-1.0385,-1.0374,-1.036,-1.0351,-1.034,-1.033,-1.0321,-1.0308,-1.0291,-1.0286,-1.0269,-1.0255,-1.023,-1.022,-1.0206,-1.0206,-1.0202,-1.0201,-1.02,-1.0199,-1.0223,-1.0203,-1.0203,-1.0203,-1.0203,-1.0203,0,-1.0376,-1.0369,-1.0357,-1.0342,-1.0331,-1.033,-1.0317,-1.0307,-1.0293,-1.028,-1.0267,-1.0248,-1.0232,-1.0219,-1.0202,-1.0192,-1.019,-1.0188,-1.0188,-1.0186,-1.02,-1.0204,-1.0191,-1.0191,-1.0191,-1.0191,-1.0191,-1.0191,-1.0366,-1.035,-1.0345,-1.0325,-1.0317,-1.0301,-1.0294,-1.0284,-1.0274,-1.0254,-1.0241,-1.0233,-1.022,-1.0202,-1.0186,-1.0182,-1.0176,-1.0175,-1.017,-1.0184,-1.0185,-1.0186,-1.019,-1.0173,-1.0173,-1.0157,-1.0157,-1.0157]}]]